CAPE
18 25 0 0 0 0 0 0 0 0 0 0 0 0 0 0 0 0 0 10 13 13 12 13 9 10 10 6 5 5 2 2 0 0 0 0 0 0 0 0 0 0 0
1 0 0 0 0 0 0 0 0 0 0 0 0 0 0 0 0 0 0 0 5 13 14 8 5 6 5 6 0 0 0 0 0 0 0 0 0 0 0 0 0 0 0
0 0 0 0 0 0 0 0 0 0 0 0 0 0 0 0 0 0 0 0 0 1 11 14 9 5 4 4 0 0 0 0 0 0 0 0 0 0 0 0 0 0 0
0 0 0 3 0 0 0 0 0 0 0 0 0 0 0 0 0 0 0 0 0 0 0 9 13 11 6 3 0 0 0 0 0 0 0 0 0 0 0 0 0 0 0
0 0 6 1 0 0 0 0 0 0 0 0 0 0 0 0 0 0 0 0 0 0 0 0 1 3 10 8 0 0 0 0 0 0 0 0 0 0 0 0 0 0 0
3 0 2 1 0 0 0 0 0 0 0 0 0 0 0 0 0 0 0 0 0 0 0 0 0 0 0 11 16 12 9 0 0 0 0 0 0 0 0 0 0 0 0
5 6 4 2 12 0 0 5 0 0 0 0 0 0 0 0 0 0 0 0 0 0 0 0 0 0 0 0 27 22 37 44 36 0 0 0 0 0 0 0 0 0 0
2 3 11 4 6 0 6 14 3 11 0 0 0 0 0 0 13 12 2 1 0 0 0 0 0 0 0 0 0 30 43 64 104 67 57 27 14 2 3 3 0 1 0
6 1 0 9 19 14 13 15 12 21 2 0 7 0 0 0 0 0 0 2 0 0 0 0 0 0 0 0 0 0 0 0 96 274 227 139 81 60 44 46 34 26 13
10 8 1 20 11 58 30 34 33 39 10 9 14 2 1 0 0 0 0 0 0 0 0 0 0 0 0 0 0 0 0 0 2 31 174 274 170 142 112 94 76 83 80
11 11 5 13 31 49 64 47 50 41 39 4 0 34 44 29 47 31 7 0 0 0 0 0 0 0 0 0 0 0 0 0 0 1 27 101 182 208 185 152 131 115 108
5 4 17 8 15 7 9 21 25 34 66 59 34 30 51 61 40 34 19 8 0 0 0 1 0 0 0 0 0 0 0 0 0 0 0 7 59 110 173 184 173 186 178
4 19 9 13 46 46 18 1 26 65 68 66 60 44 47 48 42 32 29 4 16 24 8 0 0 0 1 0 0 0 0 0 0 0 0 0 1 10 41 94 107 136 150
17 32 25 19 9 24 10 30 52 91 111 107 95 62 54 33 31 21 30 32 33 30 13 1 3 3 0 0 0 2 2 1 0 4 1 5 2 0 7 14 25 9 37
9 16 24 14 28 34 32 63 77 86 100 112 103 68 55 33 12 11 13 33 20 6 23 1 0 1 0 0 0 1 2 2 10 14 8 24 29 6 8 22 22 10 2
2 12 21 23 13 13 18 48 78 82 66 64 76 74 41 17 7 5 42 18 23 6 10 0 0 0 0 0 0 1 4 3 0 15 14 9 10 7 13 20 21 15 11
0 0 1 10 7 12 20 45 43 42 49 41 45 40 27 13 17 11 16 1 3 16 18 0 0 0 0 0 0 0 0 1 0 6 7 9 20 14 12 19 16 10 2
0 0 0 1 5 3 3 4 6 19 25 35 40 34 9 11 6 4 5 7 13 0 2 0 0 0 0 0 0 0 0 0 1 5 1 14 9 13 18 28 4 8 1
0 0 0 0 0 0 1 0 0 4 6 1 9 1 0 4 0 3 6 6 2 2 5 0 0 0 0 0 0 0 3 2 0 3 3 0 11 9 17 8 7 1 0
13 0 0 0 0 0 0 0 0 0 0 0 0 0 0 0 0 0 0 0 0 1 0 1 3 0 3 4 3 3 0 6 3 1 4 1 5 2 9 13 7 6 3
8 44 21 0 0 0 0 0 0 0 0 0 0 0 0 0 0 0 0 0 0 0 0 0 0 0 3 20 28 18 6 6 2 7 0 0 5 4 1 5 1 1 1
7 0 15 6 0 0 0 0 0 0 0 0 0 0 0 0 0 0 0 0 0 0 0 0 0 16 17 21 12 7 14 28 27 11 3 0 0 0 0 1 1 1 1
54 16 5 9 19 28 11 1 0 1 2 4 1 0 0 0 0 0 0 0 0 0 9 18 21 20 22 37 20 35 41 30 25 3 28 14 0 0 0 0 2 0 0
79 83 94 87 52 46 35 38 24 12 20 25 23 25 30 16 15 19 26 32 42 38 45 67 73 45 41 36 52 64 51 59 15 4 6 1 1 4 5 0 0 0 0
88 110 104 89 82 131 88 99 96 86 86 139 158 173 62 63 67 80 133 46 57 31 9 24 30 22 31 37 61 43 40 34 15 6 0 0 0 0 1 0 0 0 0
130 126 99 119 109 136 135 146 152 192 111 128 112 101 91 74 74 80 86 77 55 50 26 20 23 53 27 13 22 26 25 15 1 0 0 0 4 0 0 0 0 0 0
CIN
-32 -10 0 0 0 0 0 0 0 0 0 0 0 0 0 0 0 0 0 -12 -3 0 0 0 0 0 0 0 0 0 0 0 0 0 0 0 0 0 0 0 0 0 0
-24 0 0 0 0 0 0 0 0 0 0 0 0 0 0 0 0 0 0 0 -12 -2 0 0 0 0 0 0 0 0 0 0 0 0 0 0 0 0 0 0 0 0 0
0 0 0 0 0 0 0 0 0 0 0 0 0 0 0 0 0 0 0 0 0 -7 -6 0 0 0 0 0 0 0 0 0 0 0 0 0 0 0 0 0 0 0 0
0 0 -3 -5 0 0 0 0 0 0 0 0 0 0 0 0 0 0 0 0 0 0 -9 -6 -1 0 0 0 0 0 0 0 0 0 0 0 0 0 0 0 0 0 0
-6 0 -5 -1 0 0 0 0 0 0 0 0 0 0 0 0 0 0 0 0 0 0 0 0 -5 -2 -2 0 0 0 0 0 0 0 0 0 0 0 0 0 0 0 0
-1 0 -4 -1 0 0 -86 0 0 0 0 0 0 0 0 0 0 0 0 0 0 0 0 0 0 0 0 -169 -106 0 0 0 0 0 0 0 0 0 0 0 0 0 0
0 0 -1 0 0 0 0 -84 0 0 0 0 0 0 0 -3 0 0 0 0 0 0 0 0 0 0 0 0 -103 -133 -101 -115 0 0 0 0 0 0 0 0 0 0 0
-1 -1 -2 0 -2 -1 -20 -28 -10 -35 0 0 0 0 0 0 -69 -59 -52 -29 0 0 0 0 0 0 0 0 0 -63 -34 -11 -2 -29 -39 0 0 0 0 0 0 0 0
-2 0 -1 0 0 -94 -53 -6 -20 -12 -20 -34 -65 0 0 0 0 0 0 -83 0 0 0 0 0 0 0 0 0 0 0 0 -15 0 0 0 0 0 -2 0 0 0 0
0 -1 -5 -15 -1 -24 -27 -11 -1 -1 -26 -70 -48 -120 -169 0 0 0 0 0 0 0 0 0 0 0 0 0 0 0 0 0 -83 -24 -2 -1 0 0 0 0 0 0 0
0 -1 0 0 -11 -4 -8 -8 0 -27 -10 -35 0 -75 -43 -68 -24 -22 -17 -2 0 0 -1 -1 -1 0 0 0 0 0 0 0 0 -1 -50 -12 -2 0 0 0 0 0 0
-9 -1 0 -2 0 -7 -2 -4 -69 -33 -10 -9 -29 -13 -31 -50 -41 -29 -22 -22 0 0 0 -1 -2 0 0 0 0 0 0 0 0 0 0 -54 -33 -9 0 0 0 0 0
-1 -1 0 -6 -9 -10 -1 0 -66 -29 -21 -31 -37 -16 -6 -23 -27 -12 -8 -23 -35 -58 -42 0 0 0 -28 -2 0 0 0 0 0 0 0 0 0 -12 -20 -3 0 0 0
-7 0 -3 -1 -4 -3 -1 -1 -34 -47 -48 -40 -36 -18 -9 -46 -68 -48 -50 -32 -25 -30 -35 -7 -36 -31 0 -5 0 -30 -36 -46 0 -29 -3 -8 -10 0 0 0 -1 -4 -1
-14 0 -6 0 0 -5 -3 -58 -56 -64 -54 -50 -36 -13 -11 -87 -111 0 -3 -34 -2 -1 0 0 0 -60 -17 -48 -6 -40 -47 -41 -43 -30 -32 -9 -2 -2 -2 0 0 -3 0
-1 -1 0 -2 -1 -2 -70 -84 -60 -52 -57 -53 -30 -18 -13 -119 -68 0 0 -14 -61 0 0 0 0 0 0 0 0 -36 -49 -34 0 -34 -38 -29 -2 -2 -5 0 0 0 -1
0 0 -1 -1 -18 -20 -32 -32 -52 -69 -60 -42 -28 -19 -14 -42 -121 -83 0 -1 -1 0 0 0 0 0 0 0 0 0 0 -11 0 -37 -49 -47 0 -3 -14 -1 0 0 0
0 0 0 -7 -2 -3 -14 -1 -2 -25 -34 -35 -36 -37 -39 -37 -22 -16 -15 0 0 0 0 0 0 0 0 0 0 0 0 0 -21 -58 -35 -49 -12 0 -9 0 -1 0 0
0 0 0 0 0 -1 0 0 0 0 0 0 -31 -25 0 0 0 -35 -36 -18 0 0 -1 -2 0 0 0 0 0 0 -2 -66 -2 -1 0 0 -4 -1 0 0 0 0 0
-138 0 0 0 0 0 0 0 0 0 0 0 0 0 0 0 0 0 0 0 0 -14 0 0 0 0 -1 -1 -1 -9 -21 -17 -18 -7 0 0 -3 0 0 0 0 0 0
-206 -178 -171 0 0 0 0 0 0 0 0 0 0 0 0 0 0 0 0 0 0 0 0 0 0 0 -2 -26 -18 -36 -38 -28 -4 -5 0 0 0 0 -7 -10 0 0 0
-44 -1 -256 -119 0 0 0 0 0 0 0 0 0 0 0 0 0 0 0 0 0 0 0 0 0 -4 -6 -31 -17 -15 -16 0 -1 0 -1 0 0 0 0 0 0 0 0
-105 -132 -69 -46 -42 -30 -209 -68 0 -36 -33 -39 -45 0 0 0 0 0 0 0 0 -1 -1 -2 -1 -2 -5 0 0 0 -1 -1 -1 0 0 0 0 0 0 0 0 0 0
-103 -102 -100 -104 -118 -151 -94 -33 -84 -113 -92 -130 -138 -149 -139 -178 -171 -153 -92 -58 -26 -25 -17 -8 -3 -8 0 -7 -1 0 -1 0 0 0 -2 -3 -1 0 0 0 0 0 0
-123 -106 -79 -70 -54 -83 -44 -55 -65 -61 -54 -47 -36 -25 -86 -91 -96 -70 -22 -46 -29 -30 -21 -1 -4 -15 -9 -1 0 0 0 -2 -1 -1 0 0 0 0 0 0 0 0 0
-106 -87 -64 -64 -64 -38 -29 -17 -25 -11 -27 -29 -39 -37 -29 -42 -61 -58 -44 -42 -35 -22 -15 -6 -2 -1 0 -5 -3 0 0 0 -3 0 0 0 0 0 0 0 0 0 0
Wind_Speed
nan nan nan nan nan nan nan nan nan nan nan nan nan nan nan nan nan nan nan nan nan nan nan nan nan nan nan nan nan nan nan nan nan nan nan nan nan nan nan nan nan nan nan
nan nan nan nan nan nan nan nan nan nan nan nan nan nan nan nan nan nan nan nan nan nan nan nan nan nan nan nan nan nan nan nan nan nan nan nan nan nan nan nan nan nan nan
nan nan nan nan nan nan nan nan nan nan nan nan nan nan nan nan nan nan nan nan nan nan nan nan nan nan nan nan nan nan nan nan nan nan nan nan nan nan nan nan nan nan nan
nan nan nan nan nan nan nan nan nan nan nan nan nan nan nan nan nan nan nan nan nan nan nan nan nan nan nan nan nan nan nan nan nan nan nan nan nan nan nan nan nan nan nan
nan nan nan nan nan nan nan nan nan nan nan nan nan nan nan nan nan nan nan nan nan nan nan nan nan nan nan nan nan nan nan nan nan nan nan nan nan nan nan nan nan nan nan
nan nan nan nan nan nan nan nan nan nan nan nan nan nan nan nan nan nan nan nan nan nan nan nan nan nan nan nan nan nan nan nan nan nan nan nan nan nan nan nan nan nan nan
nan nan nan nan nan nan nan nan nan nan nan nan nan nan nan nan nan nan nan nan nan nan nan nan nan nan nan nan nan nan nan nan nan nan nan nan nan nan nan nan nan nan nan
nan nan nan nan nan nan nan nan nan nan nan nan nan nan nan nan nan nan nan nan nan nan nan nan nan nan nan nan nan nan nan nan 12 nan nan nan nan nan nan nan nan nan nan
nan nan nan nan nan nan nan nan nan nan nan nan nan nan nan nan nan nan nan nan nan nan nan nan nan nan nan nan nan nan nan nan nan 9 14 19 nan nan nan nan nan nan nan
nan nan nan nan nan nan nan nan nan nan nan nan nan nan nan nan nan nan nan nan nan nan nan nan nan nan nan nan nan nan nan nan nan nan 13 17 24 27 27 nan nan nan nan
nan nan nan nan nan nan nan nan nan nan nan nan nan nan nan nan nan nan nan nan nan nan nan nan nan nan nan nan nan nan nan nan nan nan nan 19 21 25 28 28 27 28 27
nan nan nan nan nan nan nan nan nan nan nan nan nan nan nan nan nan nan nan nan nan nan nan nan nan nan nan nan nan nan nan nan nan nan nan nan nan 24 24 27 34 33 33
nan nan nan nan nan nan nan nan nan nan nan nan nan nan nan nan nan nan nan nan nan nan nan nan nan nan nan nan nan nan nan nan nan nan nan nan nan nan nan nan 33 37 37
nan nan nan nan nan nan nan nan nan nan 30 28 nan nan nan nan nan nan nan nan nan nan nan nan nan nan nan nan nan nan nan nan nan nan nan nan nan nan nan nan nan nan nan
nan nan nan nan nan nan nan nan nan nan 26 25 24 nan nan nan nan nan nan nan nan nan nan nan nan nan nan nan nan nan nan nan nan nan nan nan nan nan nan nan nan nan nan
nan nan nan nan nan nan nan nan nan nan nan nan nan nan nan nan nan nan nan nan nan nan nan nan nan nan nan nan nan nan nan nan nan nan nan nan nan nan nan nan nan nan nan
nan nan nan nan nan nan nan nan nan nan nan nan nan nan nan nan nan nan nan nan nan nan nan nan nan nan nan nan nan nan nan nan nan nan nan nan nan nan nan nan nan nan nan
nan nan nan nan nan nan nan nan nan nan nan nan nan nan nan nan nan nan nan nan nan nan nan nan nan nan nan nan nan nan nan nan nan nan nan nan nan nan nan nan nan nan nan
nan nan nan nan nan nan nan nan nan nan nan nan nan nan nan nan nan nan nan nan nan nan nan nan nan nan nan nan nan nan nan nan nan nan nan nan nan nan nan nan nan nan nan
nan nan nan nan nan nan nan nan nan nan nan nan nan nan nan nan nan nan nan nan nan nan nan nan nan nan nan nan nan nan nan nan nan nan nan nan nan nan nan nan nan nan nan
nan nan nan nan nan nan nan nan nan nan nan nan nan nan nan nan nan nan nan nan nan nan nan nan nan nan nan nan nan nan nan nan nan nan nan nan nan nan nan nan nan nan nan
nan nan nan nan nan nan nan nan nan nan nan nan nan nan nan nan nan nan nan nan nan nan nan nan nan nan nan nan nan nan nan nan nan nan nan nan nan nan nan nan nan nan nan
nan nan nan nan nan nan nan nan nan nan nan nan nan nan nan nan nan nan nan nan nan nan nan nan nan nan nan nan nan nan nan nan nan nan nan nan nan nan nan nan nan nan nan
nan nan nan nan nan nan nan nan nan nan nan nan nan nan nan nan nan nan nan nan nan nan nan nan nan nan nan nan nan nan nan nan nan nan nan nan nan nan nan nan nan nan nan
nan 30 33 nan nan 25 nan nan nan nan nan 32 31 31 nan nan nan nan 47 nan nan nan nan nan nan nan nan nan nan nan nan nan nan nan nan nan nan nan nan nan nan nan nan
42 40 nan 58 59 55 58 52 47 44 43 43 51 56 nan nan nan nan nan nan nan nan nan nan nan nan nan nan nan nan nan nan nan nan nan nan nan nan nan nan nan nan nan
Wind_Direction
nan nan nan nan nan nan nan nan nan nan nan nan nan nan nan nan nan nan nan nan nan nan nan nan nan nan nan nan nan nan nan nan nan nan nan nan nan nan nan nan nan nan nan
nan nan nan nan nan nan nan nan nan nan nan nan nan nan nan nan nan nan nan nan nan nan nan nan nan nan nan nan nan nan nan nan nan nan nan nan nan nan nan nan nan nan nan
nan nan nan nan nan nan nan nan nan nan nan nan nan nan nan nan nan nan nan nan nan nan nan nan nan nan nan nan nan nan nan nan nan nan nan nan nan nan nan nan nan nan nan
nan nan nan nan nan nan nan nan nan nan nan nan nan nan nan nan nan nan nan nan nan nan nan nan nan nan nan nan nan nan nan nan nan nan nan nan nan nan nan nan nan nan nan
nan nan nan nan nan nan nan nan nan nan nan nan nan nan nan nan nan nan nan nan nan nan nan nan nan nan nan nan nan nan nan nan nan nan nan nan nan nan nan nan nan nan nan
nan nan nan nan nan nan nan nan nan nan nan nan nan nan nan nan nan nan nan nan nan nan nan nan nan nan nan nan nan nan nan nan nan nan nan nan nan nan nan nan nan nan nan
nan nan nan nan nan nan nan nan nan nan nan nan nan nan nan nan nan nan nan nan nan nan nan nan nan nan nan nan nan nan nan nan nan nan nan nan nan nan nan nan nan nan nan
nan nan nan nan nan nan nan nan nan nan nan nan nan nan nan nan nan nan nan nan nan nan nan nan nan nan nan nan nan nan nan nan 326 nan nan nan nan nan nan nan nan nan nan
nan nan nan nan nan nan nan nan nan nan nan nan nan nan nan nan nan nan nan nan nan nan nan nan nan nan nan nan nan nan nan nan nan 311 321 319 nan nan nan nan nan nan nan
nan nan nan nan nan nan nan nan nan nan nan nan nan nan nan nan nan nan nan nan nan nan nan nan nan nan nan nan nan nan nan nan nan nan 330 319 321 322 320 nan nan nan nan
nan nan nan nan nan nan nan nan nan nan nan nan nan nan nan nan nan nan nan nan nan nan nan nan nan nan nan nan nan nan nan nan nan nan nan 337 328 324 318 316 323 319 316
nan nan nan nan nan nan nan nan nan nan nan nan nan nan nan nan nan nan nan nan nan nan nan nan nan nan nan nan nan nan nan nan nan nan nan nan nan 329 323 316 319 321 322
nan nan nan nan nan nan nan nan nan nan nan nan nan nan nan nan nan nan nan nan nan nan nan nan nan nan nan nan nan nan nan nan nan nan nan nan nan nan nan nan 313 317 320
nan nan nan nan nan nan nan nan nan nan 253 252 nan nan nan nan nan nan nan nan nan nan nan nan nan nan nan nan nan nan nan nan nan nan nan nan nan nan nan nan nan nan nan
nan nan nan nan nan nan nan nan nan nan 251 252 259 nan nan nan nan nan nan nan nan nan nan nan nan nan nan nan nan nan nan nan nan nan nan nan nan nan nan nan nan nan nan
nan nan nan nan nan nan nan nan nan nan nan nan nan nan nan nan nan nan nan nan nan nan nan nan nan nan nan nan nan nan nan nan nan nan nan nan nan nan nan nan nan nan nan
nan nan nan nan nan nan nan nan nan nan nan nan nan nan nan nan nan nan nan nan nan nan nan nan nan nan nan nan nan nan nan nan nan nan nan nan nan nan nan nan nan nan nan
nan nan nan nan nan nan nan nan nan nan nan nan nan nan nan nan nan nan nan nan nan nan nan nan nan nan nan nan nan nan nan nan nan nan nan nan nan nan nan nan nan nan nan
nan nan nan nan nan nan nan nan nan nan nan nan nan nan nan nan nan nan nan nan nan nan nan nan nan nan nan nan nan nan nan nan nan nan nan nan nan nan nan nan nan nan nan
nan nan nan nan nan nan nan nan nan nan nan nan nan nan nan nan nan nan nan nan nan nan nan nan nan nan nan nan nan nan nan nan nan nan nan nan nan nan nan nan nan nan nan
nan nan nan nan nan nan nan nan nan nan nan nan nan nan nan nan nan nan nan nan nan nan nan nan nan nan nan nan nan nan nan nan nan nan nan nan nan nan nan nan nan nan nan
nan nan nan nan nan nan nan nan nan nan nan nan nan nan nan nan nan nan nan nan nan nan nan nan nan nan nan nan nan nan nan nan nan nan nan nan nan nan nan nan nan nan nan
nan nan nan nan nan nan nan nan nan nan nan nan nan nan nan nan nan nan nan nan nan nan nan nan nan nan nan nan nan nan nan nan nan nan nan nan nan nan nan nan nan nan nan
nan nan nan nan nan nan nan nan nan nan nan nan nan nan nan nan nan nan nan nan nan nan nan nan nan nan nan nan nan nan nan nan nan nan nan nan nan nan nan nan nan nan nan
nan 290 286 nan nan 280 nan nan nan nan nan 292 290 290 nan nan nan nan 288 nan nan nan nan nan nan nan nan nan nan nan nan nan nan nan nan nan nan nan nan nan nan nan nan
262 268 nan 266 260 260 250 252 260 277 285 278 273 268 nan nan nan nan nan nan nan nan nan nan nan nan nan nan nan nan nan nan nan nan nan nan nan nan nan nan nan nan nan